Wind_Speed
62 67 68 65 62 58 54 46 40 38 40 40 37 32 33 33 27 25 23 23 26 28 27 26 26 27 28 29 30 29 25 24 24 25 27 28 30 33 35 35 35 35 36 37
59 66 64 60 57 56 52 47 42 40 39 37 34 30 32 33 29 27 25 24 25 27 27 27 27 28 30 31 29 24 21 23 25 27 28 30 32 34 34 35 35 37 38 39
56 62 61 57 54 54 51 46 42 39 35 35 33 30 31 32 30 29 27 26 25 25 25 26 27 29 30 29 26 22 22 24 27 29 30 31 33 34 34 35 37 38 39 40
52 58 54 51 51 51 49 46 41 37 35 35 32 28 29 31 30 29 28 27 25 25 25 26 28 29 28 26 25 24 25 27 29 31 32 33 33 34 35 37 38 39 40 40
51 56 53 49 48 48 47 45 40 36 35 34 30 26 27 31 30 29 30 28 26 26 27 28 28 27 27 25 26 27 28 29 31 32 34 35 35 35 36 37 38 39 40 41
49 50 50 46 44 46 47 44 39 35 34 32 29 26 27 30 30 30 29 29 28 28 29 29 28 27 27 26 27 28 29 30 31 33 35 35 36 36 36 37 39 40 42 44
51 48 49 47 46 47 48 43 38 36 34 30 28 27 28 29 28 28 28 29 29 29 29 30 30 29 28 28 28 29 30 31 33 34 34 35 36 36 37 39 41 43 45 47
46 44 47 48 47 46 46 42 38 35 32 28 27 27 27 27 27 26 26 26 27 27 28 29 29 28 28 29 29 30 31 33 34 34 35 35 35 36 38 40 43 46 49 52
42 43 47 48 45 42 42 40 37 33 29 27 27 27 26 25 25 24 23 23 25 26 28 30 30 29 29 30 30 31 32 33 34 34 34 35 36 37 40 43 47 51 54 57
41 42 45 45 43 41 39 38 36 32 29 27 26 26 25 23 24 23 23 23 25 26 29 31 30 30 30 31 30 31 31 32 33 33 34 35 37 40 44 48 52 55 58 61
39 41 44 44 42 41 39 38 36 32 30 27 25 23 23 23 24 24 24 25 27 28 30 31 29 29 29 29 28 29 30 31 32 33 35 38 41 45 49 52 55 59 62 65
39 39 41 43 41 39 37 35 33 32 30 27 25 23 22 22 23 24 24 25 27 29 30 28 26 25 26 27 28 29 30 32 34 36 39 42 45 49 52 56 59 62 65 67
41 39 40 41 42 41 39 35 32 31 30 30 27 23 22 23 24 23 23 24 25 26 26 24 24 25 27 28 29 30 32 34 37 40 43 46 50 53 57 60 62 64 67 69
39 38 37 37 37 36 34 31 30 30 30 29 26 22 24 26 25 25 25 24 24 24 24 24 25 27 28 29 30 32 35 37 41 44 47 50 54 57 60 62 64 66 69 72
34 33 33 34 34 35 36 36 35 33 31 30 26 24 25 27 26 26 26 25 25 25 25 25 27 28 29 30 33 35 37 40 44 48 51 55 58 61 63 65 66 68 71 75
29 28 30 32 34 36 37 39 38 35 33 31 28 23 25 27 27 26 26 26 26 27 28 28 28 29 31 33 35 37 40 44 48 52 55 59 62 64 65 67 69 71 74 76
24 26 28 31 33 35 35 35 36 36 33 31 28 24 26 26 27 27 27 27 29 30 30 30 29 31 33 35 37 40 44 47 51 55 59 62 65 66 67 69 71 73 76 78
22 23 25 28 32 35 33 33 33 34 33 31 28 25 25 26 27 28 28 30 31 31 30 30 31 33 34 36 39 43 47 51 55 60 63 66 67 68 68 70 73 76 78 80
23 21 21 23 26 28 28 29 29 27 26 26 26 26 27 27 28 29 31 32 32 31 30 31 33 34 36 39 43 47 51 56 60 64 67 68 67 68 69 72 74 77 79 81
24 23 22 21 21 21 21 23 24 25 22 22 24 26 27 29 30 30 32 34 33 31 32 33 34 35 39 43 47 52 56 60 64 67 68 67 67 69 71 73 75 78 81 84
26 26 25 23 22 22 23 23 23 23 21 22 24 26 29 31 32 31 31 32 32 32 33 34 36 39 43 48 52 56 60 64 67 68 67 67 68 70 72 74 77 80 84 88
25 26 25 24 23 21 23 25 26 26 26 26 27 28 29 30 31 30 30 30 31 32 34 36 40 44 48 52 56 60 64 67 68 67 67 68 69 71 73 76 79 83 88 91
25 25 23 23 22 22 23 23 24 26 27 28 28 28 28 28 28 28 29 30 32 34 37 41 45 49 53 57 60 63 66 67 66 65 65 67 69 72 75 79 83 87 91 92
19 19 19 19 18 19 19 20 21 23 25 26 27 27 27 27 27 28 30 32 35 38 42 46 49 53 57 60 63 65 64 62 61 62 64 67 71 75 79 83 88 91 92 90
15 15 16 16 17 18 19 20 21 22 24 25 27 28 28 29 30 32 34 37 40 43 47 50 53 56 59 61 61 59 57 58 60 63 67 71 75 79 84 88 91 91 89 85
16 17 17 17 17 18 19 21 22 24 25 27 28 30 31 33 34 36 38 41 44 47 50 52 55 57 57 55 53 53 55 58 62 67 71 76 80 84 88 90 89 87 82 77
Wind_Direction
207 207 206 207 209 212 212 210 211 216 222 224 226 224 230 236 230 229 230 229 225 225 229 235 243 253 260 265 271 275 275 275 275 278 282 287 292 295 296 296 296 297 299 300
202 203 202 204 207 210 209 206 208 216 222 223 225 224 228 235 231 227 228 228 224 224 230 238 248 256 262 268 271 269 270 272 275 278 283 288 292 294 294 295 297 299 302 304
199 197 197 200 204 207 204 203 208 217 222 225 225 222 227 235 232 228 229 227 223 225 233 242 251 259 264 265 264 266 268 272 276 279 284 289 293 295 297 298 301 303 303 302
192 190 192 198 203 204 200 201 209 216 221 224 223 223 228 234 233 229 229 227 226 230 237 246 254 260 261 261 262 266 270 275 280 285 289 293 297 298 298 298 299 299 299 299
185 186 188 195 200 199 196 201 210 215 220 222 221 222 223 232 231 229 228 228 231 236 243 250 257 260 259 261 265 269 274 280 286 290 293 296 296 295 295 296 296 296 295 294
177 186 190 193 197 197 196 202 209 215 220 221 219 218 211 227 228 229 228 230 236 243 249 255 259 260 261 263 268 274 280 284 288 290 293 294 294 294 294 294 294 294 295 297
173 179 187 190 193 195 196 202 207 212 216 216 217 218 211 221 228 232 233 235 239 245 252 257 260 263 265 268 272 277 281 284 287 291 294 295 295 296 296 296 296 297 300 302
173 177 183 188 192 193 196 200 205 210 212 212 215 218 217 218 226 232 234 238 242 246 250 254 258 263 266 269 272 276 281 286 290 293 295 296 295 295 296 297 299 300 302 304
171 177 186 192 194 195 197 201 206 210 210 209 213 218 221 220 228 235 238 241 245 247 251 255 259 263 266 270 275 280 285 290 293 296 296 296 296 297 299 300 301 303 305 306
171 181 187 191 196 199 202 206 208 208 207 207 208 215 223 226 233 238 241 244 249 253 257 260 263 266 270 276 281 285 289 294 297 297 296 297 299 301 302 303 305 306 306 306
171 179 187 193 199 201 204 206 209 212 213 212 213 219 228 235 239 242 245 250 254 257 260 263 266 270 275 280 285 290 294 296 296 296 297 300 302 304 305 307 307 307 307 307
179 181 188 195 200 202 206 209 212 216 217 218 221 226 236 244 246 247 249 253 257 259 262 265 269 275 280 286 290 293 294 296 297 299 301 304 305 307 308 308 308 308 307 307
191 195 198 202 205 208 210 211 214 218 220 221 225 236 246 250 250 252 254 256 257 258 261 265 273 279 284 288 290 292 294 298 300 302 304 306 308 308 309 309 308 308 308 308
196 202 208 211 213 215 216 219 223 225 225 225 229 241 249 248 248 250 252 254 256 258 262 270 276 280 283 286 289 291 296 299 302 304 306 307 308 309 309 309 308 308 308 308
198 204 209 212 211 211 214 219 223 226 225 227 231 241 245 247 248 251 252 252 255 260 266 272 276 280 283 286 289 293 297 301 304 306 307 308 309 309 309 309 309 309 309 309
203 207 210 212 213 215 216 219 222 224 224 227 233 236 242 248 252 254 253 253 258 263 268 272 276 280 284 287 292 296 300 303 306 307 308 309 309 309 309 309 309 309 309 310
208 206 208 211 214 216 219 222 226 228 229 234 236 236 243 250 255 256 256 259 262 266 269 273 277 281 286 290 294 299 302 305 307 308 309 310 310 309 309 309 309 309 310 312
204 208 210 214 216 220 220 224 228 230 232 234 235 240 248 253 256 258 259 261 263 266 270 274 279 283 287 292 297 302 305 306 308 309 310 310 309 309 309 309 309 310 312 313
200 203 208 213 220 223 223 226 229 229 228 234 239 245 252 257 259 259 260 262 265 268 271 276 280 284 290 295 300 303 305 307 309 310 310 310 309 309 309 309 310 311 313 314
200 202 206 214 222 222 214 216 220 225 229 238 244 248 252 256 259 261 263 265 267 268 272 277 282 288 293 298 301 303 305 308 309 310 310 309 309 309 310 311 312 313 315 315
208 208 212 220 226 222 215 216 221 228 232 240 248 252 255 258 261 263 266 266 267 271 277 282 288 293 296 299 301 303 305 308 309 310 311 311 310 311 312 313 315 316 316 316
216 217 221 225 225 222 224 228 232 236 239 246 252 257 261 262 261 262 265 268 272 277 282 287 291 294 296 299 301 303 306 309 311 312 312 312 312 313 314 315 316 317 317 317
216 220 224 226 230 230 233 238 240 242 247 251 255 259 264 264 263 264 267 271 275 280 285 289 292 295 297 300 303 305 308 311 312 313 313 313 314 314 315 316 316 316 316 316
208 215 223 227 227 231 235 241 246 249 253 256 259 262 263 264 265 267 270 274 279 284 287 291 293 296 299 302 305 308 311 313 314 314 314 315 315 316 316 316 316 316 316 316
208 216 222 228 234 240 244 248 252 255 257 258 260 261 262 265 269 272 276 280 284 286 289 292 295 298 302 306 309 311 313 314 315 315 316 317 317 318 317 317 316 316 316 316
226 232 239 244 247 251 254 256 258 260 262 263 265 265 268 272 276 279 281 283 286 289 292 295 299 303 307 310 311 313 314 315 316 317 318 319 319 319 318 317 316 317 317 317
Height
5653 5667 5681 5699 5713 5725 5736 5748 5755 5759 5761 5767 5772 5777 5779 5781 5786 5789 5791 5792 5794 5796 5797 5799 5800 5800 5801 5800 5800 5798 5797 5795 5794 5793 5791 5789 5786 5783 5780 5776 5772 5769 5766 5762
5646 5660 5681 5696 5709 5719 5730 5740 5747 5751 5755 5762 5767 5772 5774 5775 5781 5784 5785 5787 5789 5790 5792 5793 5794 5795 5795 5795 5794 5792 5791 5789 5788 5787 5785 5782 5779 5776 5772 5769 5765 5762 5759 5755
5644 5663 5678 5691 5703 5713 5724 5735 5742 5746 5752 5757 5763 5768 5769 5771 5775 5778 5780 5782 5784 5785 5787 5788 5788 5788 5788 5788 5787 5786 5785 5784 5782 5780 5778 5774 5771 5768 5765 5762 5759 5755 5751 5747
5642 5658 5674 5687 5697 5708 5720 5729 5735 5740 5746 5751 5758 5763 5765 5766 5770 5773 5775 5778 5779 5781 5782 5782 5782 5782 5782 5782 5782 5781 5780 5778 5777 5774 5771 5768 5764 5761 5758 5755 5751 5747 5743 5739
5640 5655 5668 5682 5695 5706 5716 5724 5729 5735 5740 5746 5752 5757 5761 5760 5764 5767 5771 5773 5775 5776 5777 5776 5776 5776 5776 5776 5776 5775 5774 5772 5770 5767 5764 5761 5757 5754 5750 5746 5743 5739 5735 5731
5644 5657 5668 5680 5692 5701 5710 5717 5723 5729 5735 5743 5747 5751 5755 5755 5758 5761 5765 5768 5770 5771 5771 5770 5770 5770 5770 5771 5771 5770 5768 5766 5763 5760 5757 5754 5750 5746 5742 5739 5735 5730 5726 5721
5639 5652 5664 5675 5685 5694 5703 5711 5719 5725 5730 5738 5742 5746 5750 5750 5753 5756 5760 5763 5764 5765 5765 5764 5764 5765 5765 5765 5765 5763 5761 5758 5756 5753 5750 5746 5742 5738 5734 5730 5726 5721 5716 5711
5638 5649 5660 5672 5682 5690 5700 5709 5716 5722 5728 5734 5737 5740 5744 5746 5748 5751 5755 5758 5759 5759 5758 5758 5758 5759 5759 5759 5758 5756 5754 5751 5748 5745 5742 5738 5734 5730 5727 5722 5718 5712 5707 5701
5640 5651 5661 5672 5681 5690 5697 5704 5711 5719 5725 5730 5733 5736 5739 5741 5743 5746 5750 5752 5753 5753 5752 5752 5752 5753 5752 5751 5750 5749 5746 5743 5740 5737 5734 5730 5726 5722 5718 5714 5708 5702 5696 5689
5641 5651 5660 5670 5678 5686 5695 5702 5709 5715 5720 5725 5729 5731 5734 5737 5739 5741 5744 5746 5747 5747 5746 5746 5746 5746 5745 5744 5743 5741 5739 5735 5732 5729 5725 5721 5717 5713 5708 5703 5696 5689 5682 5675
5641 5652 5661 5670 5677 5685 5692 5699 5705 5711 5716 5722 5725 5730 5729 5731 5734 5736 5738 5739 5740 5740 5739 5739 5739 5739 5738 5736 5735 5733 5730 5727 5724 5720 5716 5712 5708 5703 5697 5690 5683 5676 5668 5660
5644 5652 5660 5668 5676 5683 5690 5697 5703 5709 5713 5718 5721 5727 5724 5726 5728 5730 5731 5733 5733 5733 5732 5732 5732 5732 5731 5729 5727 5724 5721 5718 5715 5711 5707 5702 5697 5691 5685 5678 5670 5662 5654 5646
5646 5654 5659 5665 5673 5678 5685 5692 5698 5704 5708 5712 5716 5722 5721 5721 5722 5724 5725 5726 5726 5726 5726 5726 5726 5725 5723 5721 5719 5716 5713 5710 5706 5702 5697 5692 5686 5679 5672 5664 5656 5648 5639 5630
5647 5654 5660 5667 5674 5680 5686 5692 5696 5700 5704 5708 5712 5715 5715 5715 5716 5718 5719 5720 5721 5721 5721 5720 5720 5718 5716 5714 5711 5709 5705 5701 5697 5692 5686 5680 5674 5667 5659 5651 5642 5633 5624 5615
5646 5652 5658 5663 5669 5675 5680 5685 5689 5693 5698 5702 5706 5708 5709 5709 5712 5713 5714 5714 5715 5715 5715 5714 5712 5711 5709 5706 5704 5701 5697 5692 5687 5681 5675 5669 5662 5654 5646 5637 5628 5619 5609 5599
5646 5651 5655 5660 5664 5669 5673 5678 5682 5687 5691 5696 5699 5703 5703 5704 5705 5707 5707 5708 5709 5708 5708 5706 5705 5703 5701 5698 5695 5692 5687 5682 5677 5671 5664 5657 5649 5641 5632 5623 5614 5604 5594 5582
5644 5648 5652 5656 5660 5664 5670 5675 5679 5683 5687 5691 5694 5698 5697 5698 5699 5700 5701 5702 5702 5701 5700 5699 5697 5695 5692 5690 5686 5682 5678 5673 5667 5660 5653 5645 5637 5628 5619 5609 5600 5589 5578 5566
5641 5645 5648 5652 5657 5661 5669 5670 5673 5677 5681 5684 5688 5691 5692 5693 5693 5694 5695 5695 5694 5693 5692 5691 5689 5686 5684 5681 5677 5673 5668 5662 5656 5648 5640 5632 5623 5614 5604 5595 5585 5574 5562 5551
5638 5642 5645 5649 5652 5657 5662 5666 5669 5672 5677 5680 5682 5684 5685 5686 5686 5687 5687 5686 5686 5685 5684 5682 5680 5678 5675 5672 5668 5663 5657 5651 5644 5635 5627 5618 5608 5599 5590 5580 5569 5558 5547 5535
5635 5639 5643 5646 5649 5655 5660 5661 5664 5668 5672 5674 5676 5677 5678 5679 5679 5680 5679 5678 5677 5676 5675 5674 5672 5670 5667 5663 5658 5653 5646 5639 5631 5622 5612 5603 5594 5584 5575 5565 5554 5543 5531 5518
5632 5636 5640 5643 5646 5650 5655 5657 5660 5665 5668 5669 5669 5670 5671 5671 5672 5672 5671 5670 5669 5669 5668 5666 5664 5661 5657 5653 5647 5641 5634 5625 5616 5607 5597 5588 5579 5570 5560 5550 5539 5526 5514 5501
5630 5634 5637 5639 5642 5649 5650 5652 5656 5658 5660 5661 5662 5663 5663 5663 5663 5663 5663 5663 5662 5662 5660 5658 5655 5652 5647 5642 5636 5628 5620 5611 5602 5592 5583 5574 5564 5555 5544 5533 5521 5508 5495 5482
5625 5630 5633 5636 5641 5643 5645 5647 5649 5651 5653 5654 5654 5655 5656 5656 5655 5655 5655 5655 5654 5653 5651 5648 5645 5641 5636 5629 5622 5614 5606 5596 5587 5578 5569 5560 5550 5540 5528 5516 5503 5490 5476 5461
5622 5625 5628 5632 5635 5637 5639 5641 5643 5645 5646 5647 5648 5648 5649 5649 5648 5648 5648 5647 5646 5644 5641 5638 5634 5629 5623 5616 5608 5599 5590 5581 5573 5565 5556 5547 5537 5525 5512 5499 5485 5470 5455 5441
5619 5622 5625 5627 5630 5632 5634 5635 5637 5639 5640 5640 5641 5641 5641 5641 5641 5641 5640 5638 5636 5634 5631 5626 5621 5615 5608 5601 5593 5585 5577 5569 5561 5552 5543 5532 5521 5509 5497 5482 5467 5452 5436 5420
5617 5620 5622 5624 5626 5627 5629 5630 5632 5632 5633 5633 5634 5634 5634 5634 5633 5632 5630 5628 5626 5622 5618 5612 5607 5600 5594 5587 5579 5572 5565 5557 5549 5539 5528 5517 5505 5492 5478 5464 5450 5434 5420 5406